$DATE,$TIME,DM0600B,DM0602B,DM0604B,DM0614B,DM0616B,DM0618B,DM0624B,DM0628B,DM0630B,DM0634B,DM0606B,DM0608B,DM0610B
09/07/94,00:00:00,0,0,0,0,0,0,1,81,91,0,45,34,40
09/07/94,00:05:00,0,0,0,0,0,0,1,81,40,0,27,44,27
09/07/94,00:10:00,0,0,0,0,0,0,1,154,40,0,40,40,42
09/07/94,00:15:00,0,0,0,0,0,0,1,164,40,0,46,43,31
09/07/94,00:20:00,0,0,0,0,0,0,1,81,40,0,42,41,43
09/07/94,00:25:00,0,0,0,0,0,0,1,81,40,0,41,43,29
09/07/94,00:30:00,0,0,0,0,0,0,1,81,40,0,30,30,41
09/07/94,00:35:00,0,0,0,0,0,0,1,80,40,0,44,37,32
09/07/94,00:40:00,0,0,0,0,0,0,1,80,40,0,27,43,33
09/07/94,00:45:00,0,0,0,0,0,0,1,81,86,0,37,30,35
09/07/94,00:50:00,0,0,0,0,0,0,1,81,41,0,38,43,31
09/07/94,00:55:00,0,0,0,0,0,0,1,81,40,0,30,32,36
09/07/94,01:00:00,0,0,0,0,0,0,1,81,40,0,43,37,30
09/07/94,01:05:00,0,0,0,0,0,0,1,81,40,0,28,45,36
09/07/94,01:10:00,0,0,0,0,0,0,1,81,40,0,38,27,29
09/07/94,01:15:00,0,0,0,0,0,0,1,80,40,0,40,41,39
09/07/94,01:20:00,0,0,0,0,0,0,1,81,40,0,29,40,27
09/07/94,01:25:00,0,0,0,0,0,0,1,80,40,0,43,44,41
09/07/94,01:30:00,0,0,0,0,0,0,1,77,87,0,28,28,27
09/07/94,01:35:00,0,0,0,0,0,0,1,77,40,0,40,40,43
09/07/94,01:40:00,0,0,0,0,0,0,1,76,40,0,33,36,28
09/07/94,01:45:00,0,0,0,0,0,0,1,77,40,0,33,32,44
09/07/94,01:50:00,0,0,0,0,0,0,1,77,44,0,45,45,29
09/07/94,01:55:00,0,0,0,0,0,0,1,77,44,0,28,26,42
09/07/94,02:00:00,0,0,0,0,0,0,1,77,44,0,40,38,31
09/07/94,02:05:00,0,0,0,0,0,0,1,77,44,0,33,41,38
09/07/94,02:10:00,0,0,0,0,0,0,1,77,44,0,34,29,33
09/07/94,02:15:00,0,0,0,0,0,0,0,77,87,0,44,44,34
09/07/94,02:20:00,0,0,0,0,0,0,0,77,44,0,28,29,34
09/07/94,02:25:00,0,0,0,0,0,0,0,77,51,0,41,36,36
09/07/94,02:30:00,0,0,0,0,0,0,0,77,51,0,35,45,34
09/07/94,02:35:00,0,0,0,0,0,0,0,77,44,0,33,39,32
09/07/94,02:40:00,0,0,0,0,0,0,0,76,44,0,44,44,35
09/07/94,02:45:00,0,0,0,0,0,0,0,77,44,0,28,28,29
09/07/94,02:50:00,0,0,0,0,0,0,0,77,44,0,41,39,39
09/07/94,02:55:00,0,0,0,0,0,0,0,85,44,0,29,37,27
09/07/94,03:00:00,0,0,0,0,0,0,0,85,78,0,36,31,40
09/07/94,03:05:00,0,0,0,0,0,0,0,76,44,0,43,45,28
09/07/94,03:10:00,0,0,0,0,0,0,0,77,44,0,29,28,41
09/07/94,03:15:00,0,0,0,0,0,0,0,77,44,0,42,38,28
09/07/94,03:20:00,0,0,0,0,0,0,0,76,44,0,31,43,41
09/07/94,03:25:00,0,0,0,0,0,0,0,77,44,0,35,29,29
09/07/94,03:30:00,0,0,0,0,0,0,0,77,44,0,42,43,43
09/07/94,03:35:00,0,0,0,0,0,0,0,77,44,0,29,28,29
09/07/94,03:40:00,0,0,0,0,0,0,0,77,46,0,41,36,43
09/07/94,03:45:00,0,0,0,0,0,0,0,77,85,0,31,45,29
09/07/94,03:50:00,0,0,0,0,0,0,0,77,44,0,35,27,44
09/07/94,03:55:00,0,0,0,0,0,0,0,77,44,0,44,41,30
09/07/94,04:00:00,0,0,0,0,0,0,0,76,44,0,27,35,41
09/07/94,04:05:00,0,0,0,0,0,0,0,77,44,0,41,32,31
09/07/94,04:10:00,0,0,0,0,0,0,0,77,44,0,32,45,36
09/07/94,04:15:00,0,0,0,0,0,0,0,77,44,0,34,27,34
09/07/94,04:20:00,0,0,0,0,0,0,0,77,44,0,44,40,34
09/07/94,04:25:00,0,0,0,0,0,0,0,77,44,0,28,42,34
09/07/94,04:30:00,0,0,0,0,0,0,0,77,93,0,41,42,30
09/07/94,04:35:00,0,0,0,0,0,0,0,77,52,0,34,35,37
09/07/94,04:40:00,0,0,0,0,0,0,0,77,52,0,34,33,30
09/07/94,04:45:00,0,0,0,0,0,0,0,77,52,0,44,46,37
09/07/94,04:50:00,0,0,0,0,0,0,0,77,52,0,28,27,28
09/07/94,04:55:00,0,0,0,0,0,0,0,77,49,0,41,40,41
09/07/94,05:00:00,0,0,0,0,0,0,0,77,52,0,32,38,27
09/07/94,05:05:00,0,0,0,0,0,0,0,77,52,0,34,31,42
09/07/94,05:10:00,0,0,0,0,0,0,0,77,49,0,44,44,28
09/07/94,05:15:00,0,0,0,0,0,0,0,77,82,0,29,42,42
09/07/94,05:20:00,0,0,0,0,0,0,0,77,49,0,42,42,28
09/07/94,05:25:00,0,0,0,0,0,0,0,77,49,0,29,44,42
09/07/94,05:30:00,0,0,0,0,0,0,0,156,49,0,36,42,30
09/07/94,05:35:00,0,0,0,0,0,0,0,160,49,0,45,44,45
09/07/94,05:40:00,0,0,0,0,0,0,0,77,43,0,39,41,29
09/07/94,05:45:00,0,0,0,0,0,0,0,77,42,0,44,44,43
09/07/94,05:50:00,0,0,0,0,0,0,0,77,43,0,28,28,29
09/07/94,05:55:00,0,0,0,0,0,0,0,77,43,0,40,42,42
09/07/94,06:00:00,0,0,0,0,0,0,0,77,52,0,32,31,30
09/07/94,06:05:00,0,0,0,0,0,0,0,77,43,0,35,35,39
09/07/94,06:10:00,0,0,0,0,0,0,0,77,42,0,41,45,32
09/07/94,06:15:00,0,0,0,0,0,0,0,77,43,0,29,27,34
09/07/94,06:20:00,0,0,0,0,0,0,0,77,49,0,42,41,34
09/07/94,06:25:00,0,0,0,0,0,0,0,79,49,0,29,36,30
09/07/94,06:30:00,0,0,0,0,0,0,0,78,49,0,36,32,38
09/07/94,06:35:00,0,0,0,0,0,0,0,78,49,0,43,45,27
09/07/94,06:40:00,0,0,0,0,0,0,0,78,50,0,29,41,38
09/07/94,06:45:00,0,0,0,0,0,0,0,78,83,0,42,42,28
09/07/94,06:50:00,0,0,0,0,0,0,0,78,51,0,42,44,39
09/07/94,06:55:00,0,0,0,0,0,0,0,78,51,0,42,42,27
09/07/94,07:00:00,0,0,0,0,0,0,0,78,51,0,43,44,42
09/07/94,07:05:00,0,0,0,0,0,0,0,78,44,0,30,29,27
09/07/94,07:10:00,0,0,0,0,0,0,0,78,50,0,43,41,43
09/07/94,07:15:00,0,0,0,0,0,0,0,78,50,0,30,44,28
09/07/94,07:20:00,0,0,0,0,0,0,0,78,50,0,38,40,43
09/07/94,07:25:00,0,0,0,0,0,0,0,78,49,0,38,45,29
09/07/94,07:30:00,0,0,0,0,0,0,0,78,86,0,32,40,40
09/07/94,07:35:00,0,0,0,0,0,0,0,78,49,0,43,44,31
09/07/94,07:40:00,0,0,0,0,0,0,0,78,49,0,28,28,37
09/07/94,07:45:00,0,0,0,0,0,0,0,78,49,0,38,39,34
09/07/94,07:50:00,0,0,0,0,0,0,0,77,49,0,36,37,31
09/07/94,07:55:00,0,0,0,0,0,0,0,78,67,0,32,31,35
09/07/94,08:00:00,0,0,0,0,0,0,0,77,49,0,43,44,32
09/07/94,08:05:00,0,0,0,0,0,0,0,77,49,0,28,40,36
09/07/94,08:10:00,0,0,0,0,0,0,0,78,49,0,38,43,28
09/07/94,08:15:00,0,0,0,0,0,0,0,77,50,0,38,41,37
09/07/94,08:20:00,0,0,0,0,0,0,0,78,50,0,32,44,28
09/07/94,08:25:00,0,0,0,0,0,0,0,80,50,0,43,41,40
09/07/94,08:30:00,0,0,0,0,0,0,0,80,48,0,29,45,27
09/07/94,08:35:00,0,0,0,0,0,0,0,80,48,0,38,42,42
09/07/94,08:40:00,0,0,0,0,0,0,0,80,48,0,38,44,28
09/07/94,08:45:00,0,0,0,0,0,0,0,80,48,0,32,43,44
09/07/94,08:50:00,0,0,0,0,0,0,0,80,40,0,43,42,28
09/07/94,08:55:00,0,0,0,0,0,0,0,80,40,0,28,42,42
09/07/94,09:00:00,0,0,0,0,0,0,0,80,69,0,38,30,31
09/07/94,09:05:00,0,0,0,0,0,0,0,80,33,0,37,44,36
09/07/94,09:10:00,0,0,0,0,0,0,0,80,33,0,30,26,33
09/07/94,09:15:00,0,0,0,0,0,0,0,80,33,0,44,40,33
09/07/94,09:20:00,0,0,0,0,0,0,0,80,33,0,27,35,35
09/07/94,09:25:00,0,0,0,0,0,0,0,81,33,0,39,32,28
09/07/94,09:30:00,0,0,0,0,0,0,0,80,33,0,37,45,37
09/07/94,09:35:00,0,0,0,0,0,0,0,80,33,0,31,26,27
09/07/94,09:40:00,0,0,0,0,0,0,0,80,33,0,43,39,40
09/07/94,09:45:00,0,0,0,0,0,0,0,80,62,0,28,37,27
09/07/94,09:50:00,0,0,0,0,0,0,0,80,33,0,39,31,42
09/07/94,09:55:00,0,0,0,0,0,0,0,80,33,0,35,44,27
09/07/94,10:00:00,0,0,0,0,0,0,0,77,34,0,33,30,42
09/07/94,10:05:00,0,0,0,0,0,0,0,77,42,0,44,36,29
09/07/94,10:10:00,0,0,0,0,0,0,0,78,48,0,28,45,41
09/07/94,10:15:00,0,0,0,0,0,0,0,77,48,0,40,27,32
09/07/94,10:20:00,0,0,0,0,0,0,0,77,48,0,37,40,36
09/07/94,10:25:00,0,0,0,0,0,0,0,77,48,0,31,44,33
09/07/94,10:30:00,0,0,0,0,0,0,0,78,50,0,44,41,36
09/07/94,10:35:00,0,0,0,0,0,0,0,77,48,0,28,44,34
09/07/94,10:40:00,0,0,0,0,0,0,0,77,48,0,38,41,32
09/07/94,10:45:00,0,0,0,0,0,0,0,77,48,0,38,44,36
09/07/94,10:50:00,0,0,0,0,0,0,0,77,48,0,31,42,28
09/07/94,10:55:00,0,0,0,0,0,0,0,77,41,0,44,37,39
09/07/94,11:00:00,0,0,0,0,0,0,0,78,35,0,28,32,28
09/07/94,11:05:00,0,0,0,0,0,0,0,77,39,0,39,44,42
09/07/94,11:10:00,0,0,0,0,0,0,0,78,33,0,34,27,27
09/07/94,11:15:00,0,0,0,0,0,0,0,77,39,0,33,39,43
09/07/94,11:20:00,0,0,0,0,0,0,0,77,39,0,44,40,28
09/07/94,11:25:00,0,0,0,0,0,0,0,77,38,0,28,31,42
09/07/94,11:30:00,0,0,0,0,0,0,0,77,36,0,39,43,29
09/07/94,11:35:00,0,0,0,0,0,0,0,77,30,0,33,28,36
09/07/94,11:40:00,0,0,0,0,0,0,0,77,30,0,33,36,34
09/07/94,11:45:00,0,0,0,0,0,0,0,77,30,0,42,41,30
09/07/94,11:50:00,0,0,0,0,0,0,0,77,30,0,28,29,36
09/07/94,11:55:00,0,0,0,0,0,0,0,77,30,0,40,43,28
09/07/94,12:00:00,0,0,0,0,0,0,0,77,40,0,30,28,37
09/07/94,12:05:00,0,0,0,0,0,0,0,77,29,0,34,36,27
09/07/94,12:10:00,0,0,0,0,0,0,0,77,29,0,39,41,40
09/07/94,12:15:00,0,0,0,0,0,0,0,77,29,0,29,29,27
09/07/94,12:20:00,0,0,0,0,0,0,0,77,29,0,41,42,41
09/07/94,12:25:00,0,0,0,0,0,0,0,77,29,0,28,27,29
09/07/94,12:30:00,0,0,0,0,0,0,0,77,29,0,38,37,40
09/07/94,12:35:00,0,0,0,0,0,0,0,77,29,0,32,38,31
09/07/94,12:40:00,0,0,0,0,0,0,0,77,29,0,33,30,36
09/07/94,12:45:00,0,0,0,0,0,0,0,77,30,0,43,43,31
09/07/94,12:50:00,0,0,0,0,0,0,0,77,29,0,28,27,30
09/07/94,12:55:00,0,0,0,0,0,0,0,77,29,0,40,36,36
09/07/94,13:00:00,0,0,0,0,0,0,0,77,29,0,30,40,26
09/07/94,13:05:00,0,0,0,0,0,0,0,77,29,0,34,28,40
09/07/94,13:10:00,0,0,0,0,0,0,0,77,29,0,39,42,26
09/07/94,13:15:00,0,0,0,0,0,0,0,77,29,0,30,29,40
09/07/94,13:20:00,0,0,0,0,0,0,0,77,29,0,42,35,27
09/07/94,13:25:00,0,0,0,0,0,0,0,77,29,0,27,44,40
09/07/94,13:30:00,0,0,0,0,0,0,0,77,29,0,37,27,30
09/07/94,13:35:00,0,0,0,0,0,0,0,77,30,0,37,41,35
09/07/94,13:40:00,0,0,0,0,0,0,0,77,30,0,31,35,33
09/07/94,13:45:00,0,0,0,0,0,0,0,77,30,0,42,32,32
09/07/94,13:50:00,0,0,0,0,0,0,0,77,30,0,28,44,35
09/07/94,13:55:00,0,0,0,0,0,0,0,77,30,0,38,27,27
09/07/94,14:00:00,0,0,0,0,0,0,0,77,30,0,36,38,40
09/07/94,14:05:00,0,0,0,0,0,0,0,77,30,0,31,42,26
09/07/94,14:10:00,6,0,0,0,0,0,0,77,30,0,43,30,41
09/07/94,14:15:00,0,0,0,0,0,0,0,77,30,0,28,43,29
09/07/94,14:20:00,0,0,0,0,0,0,0,77,30,0,39,31,36
09/07/94,14:25:00,2,0,0,0,0,0,0,77,30,0,32,34,32
09/07/94,14:30:00,1,0,0,0,0,0,0,76,30,0,34,44,31
09/07/94,14:35:00,12,0,5,0,0,0,0,77,30,0,39,27,35
09/07/94,14:40:00,15,0,2,0,0,0,0,76,30,0,29,40,25
09/07/94,14:45:00,1,0,2,0,0,0,0,76,30,0,41,26,39
09/07/94,14:50:00,8,0,3,0,0,0,0,76,30,0,27,36,28
09/07/94,14:55:00,0,0,0,0,0,0,0,76,30,0,39,33,32
09/07/94,15:00:00,12,0,0,0,0,0,0,77,30,0,28,32,34
09/07/94,15:05:00,0,0,0,0,0,0,0,77,30,0,36,43,26
09/07/94,15:10:00,0,0,0,0,0,0,0,77,30,0,35,26,39
09/07/94,15:15:00,10,0,0,0,0,0,0,77,30,0,32,39,27
09/07/94,15:20:00,0,0,4,0,0,0,0,77,30,0,42,37,40
09/07/94,15:25:00,0,0,0,0,0,0,0,77,30,0,28,30,29
09/07/94,15:30:00,5,0,0,0,0,0,0,77,30,0,41,42,35
09/07/94,15:35:00,0,0,0,0,0,0,0,77,30,0,28,28,33
09/07/94,15:40:00,0,0,0,0,0,0,0,77,30,0,37,37,29
09/07/94,15:45:00,0,0,0,0,0,0,0,77,30,0,33,35,35
09/07/94,15:50:00,15,0,0,0,0,0,0,77,30,0,32,32,27
09/07/94,15:55:00,0,0,0,0,0,0,0,76,30,0,41,43,41
09/07/94,16:00:00,0,0,0,0,0,0,0,77,30,0,28,27,27
09/07/94,16:05:00,4,0,0,0,0,0,0,76,30,0,40,38,40
09/07/94,16:10:00,6,0,0,0,0,0,0,77,30,0,27,42,30
09/07/94,16:15:00,7,0,5,0,0,0,0,77,29,0,36,30,35
09/07/94,16:20:00,1,0,0,0,0,0,0,76,29,0,37,41,32
09/07/94,16:25:00,4,0,4,0,0,0,0,77,29,0,31,28,28
09/07/94,16:30:00,2,0,0,0,0,0,0,77,29,0,42,36,38
09/07/94,16:35:00,7,0,3,0,0,0,0,77,30,0,27,43,26
09/07/94,16:40:00,7,0,8,0,0,0,0,76,30,0,38,40,39
09/07/94,16:45:00,8,0,6,0,0,0,0,76,30,0,27,31,28
09/07/94,16:50:00,13,0,9,0,0,0,0,77,30,0,36,35,31
09/07/94,16:55:00,9,0,4,0,0,0,0,76,30,0,31,35,34
09/07/94,17:00:00,3,0,9,0,0,0,0,76,30,0,32,30,25
09/07/94,17:05:00,5,0,3,0,0,0,0,76,30,0,40,42,39
09/07/94,17:10:00,10,0,0,0,0,0,0,77,30,0,27,26,27
09/07/94,17:15:00,0,0,4,0,0,0,0,76,30,0,40,40,37
09/07/94,17:20:00,0,0,0,0,0,0,0,77,30,0,29,31,32
09/07/94,17:25:00,5,0,0,0,0,0,0,77,30,0,35,34,31
09/07/94,17:30:00,0,0,3,0,0,0,0,76,30,0,38,43,35
09/07/94,17:35:00,3,0,0,0,0,0,0,77,30,0,30,27,25
09/07/94,17:40:00,0,0,0,0,0,0,0,77,48,0,42,40,39
09/07/94,17:45:00,4,0,2,0,0,0,0,77,30,0,27,29,26
09/07/94,17:50:00,0,0,0,0,0,0,0,76,30,0,38,36,41
09/07/94,17:55:00,6,0,0,0,0,0,0,77,30,0,34,42,29
09/07/94,18:00:00,0,0,0,0,0,0,0,76,30,0,31,28,37
09/07/94,18:05:00,7,0,1,0,0,0,0,76,30,0,42,41,33
09/07/94,18:10:00,6,0,3,0,0,0,0,76,30,0,27,28,26
09/07/94,18:15:00,9,0,5,0,0,0,0,76,30,0,38,37,38
09/07/94,18:20:00,0,0,0,0,0,0,0,77,30,0,28,38,24
09/07/94,18:25:00,0,0,0,0,0,0,0,76,30,0,35,31,41
09/07/94,18:30:00,0,0,0,0,0,0,0,77,30,0,41,43,27
09/07/94,18:35:00,14,0,5,0,0,0,0,76,30,0,27,26,38
09/07/94,18:40:00,11,20,9,0,0,0,0,76,30,0,40,37,31
09/07/94,18:45:00,9,8,4,0,0,0,0,76,29,0,26,30,26
09/07/94,18:50:00,6,16,5,0,0,0,0,76,30,0,35,32,38
09/07/94,18:55:00,17,20,15,0,0,0,0,76,29,0,32,41,24
09/07/94,19:00:00,10,10,6,0,0,0,0,76,29,0,30,26,35
09/07/94,19:05:00,14,13,7,0,0,0,0,76,29,0,36,39,29
09/07/94,19:10:00,16,17,9,0,0,0,0,76,29,0,26,23,23
09/07/94,19:15:00,14,3,3,0,0,0,0,76,30,0,37,36,35
09/07/94,19:20:00,0,0,0,0,0,0,0,76,30,0,25,27,27
09/07/94,19:25:00,16,3,12,0,0,0,0,76,30,0,36,32,32
09/07/94,19:30:00,11,8,8,0,0,0,0,78,30,0,27,39,32
09/07/94,19:35:00,7,21,14,0,0,0,0,76,49,0,33,26,24
09/07/94,19:40:00,13,13,9,0,0,0,0,77,50,0,37,39,38
09/07/94,19:45:00,6,9,0,0,0,0,0,76,50,0,28,26,26
09/07/94,19:50:00,6,3,1,0,0,0,0,77,49,0,40,36,38
09/07/94,19:55:00,1,8,2,0,0,0,0,76,49,0,27,43,31
09/07/94,20:00:00,8,8,0,0,0,0,0,77,65,0,37,28,32
09/07/94,20:05:00,12,12,7,0,0,0,0,76,49,0,37,41,35
09/07/94,20:10:00,7,3,1,0,0,0,0,77,49,0,30,40,25
09/07/94,20:15:00,2,6,0,0,0,0,0,76,49,0,41,43,40
09/07/94,20:20:00,5,6,0,0,0,0,0,77,49,0,27,28,27
09/07/94,20:25:00,5,9,4,0,0,0,0,77,49,0,37,38,38
09/07/94,20:30:00,13,18,13,0,0,0,0,76,49,0,29,30,31
09/07/94,20:35:00,1,12,4,0,0,0,0,77,49,0,33,33,31
09/07/94,20:40:00,4,10,3,0,0,0,0,77,50,0,42,43,35
09/07/94,20:45:00,0,0,0,0,0,0,0,77,49,0,28,41,26
09/07/94,20:50:00,0,0,0,0,0,0,0,77,49,0,40,43,41
09/07/94,20:55:00,0,0,0,0,0,0,0,77,49,0,31,40,27
09/07/94,21:00:00,6,5,0,0,0,0,0,77,49,0,35,42,42
09/07/94,21:05:00,0,0,0,0,0,0,0,77,49,0,42,32,28
09/07/94,21:10:00,0,0,0,0,0,0,0,77,48,0,30,37,43
09/07/94,21:15:00,0,0,0,0,0,0,0,77,48,0,42,44,29
09/07/94,21:20:00,0,0,0,0,0,0,0,77,48,0,41,39,38
09/07/94,21:25:00,0,0,0,0,0,0,0,77,48,0,43,44,33
09/07/94,21:30:00,0,0,0,0,0,0,0,77,41,0,30,29,31
09/07/94,21:35:00,0,0,0,0,0,0,0,77,41,0,38,41,35
09/07/94,21:40:00,0,0,0,0,0,0,0,77,33,0,35,31,27
09/07/94,21:45:00,0,0,0,0,0,0,0,77,33,0,34,35,39
09/07/94,21:50:00,0,0,0,0,0,0,0,77,48,0,43,44,27
09/07/94,21:55:00,0,0,0,0,0,0,0,77,51,0,30,39,40
09/07/94,22:00:00,0,0,0,0,0,0,0,77,51,0,38,43,27
09/07/94,22:05:00,0,0,0,0,0,0,0,77,51,0,43,41,43
09/07/94,22:10:00,0,0,0,0,0,0,0,77,51,0,40,43,28
09/07/94,22:15:00,0,0,0,0,0,0,0,77,51,0,42,42,42
09/07/94,22:20:00,0,0,0,0,0,0,0,77,51,0,42,44,29
09/07/94,22:25:00,0,0,0,0,0,0,0,77,51,0,42,41,39
09/07/94,22:30:00,0,0,0,0,0,0,0,77,51,0,42,43,31
09/07/94,22:35:00,0,0,0,0,0,0,0,85,51,0,43,43,37
09/07/94,22:40:00,0,0,0,0,0,0,1,85,51,0,42,42,33
09/07/94,22:45:00,0,0,0,0,0,0,1,85,51,0,42,44,31
09/07/94,22:50:00,0,0,0,0,0,0,1,85,51,0,43,43,36
09/07/94,22:55:00,0,0,0,0,0,0,1,85,51,0,29,43,29
09/07/94,23:00:00,0,0,0,0,0,0,1,85,51,0,40,37,39
09/07/94,23:05:00,0,0,0,0,0,0,1,85,51,0,43,35,28
09/07/94,23:10:00,0,0,0,0,0,0,1,85,51,0,41,44,41
09/07/94,23:15:00,0,0,0,0,0,0,1,85,51,0,36,40,27
09/07/94,23:20:00,0,0,0,0,0,0,1,85,51,0,35,45,42
09/07/94,23:25:00,0,0,0,0,0,0,1,85,51,0,44,29,28
09/07/94,23:30:00,0,0,0,0,0,0,2,85,51,0,42,36,38
09/07/94,23:35:00,0,0,0,0,0,0,2,85,52,0,43,44,28
09/07/94,23:40:00,0,0,0,0,0,0,2,85,51,0,43,41,43
09/07/94,23:45:00,0,0,0,0,0,0,2,85,51,0,44,45,30
09/07/94,23:50:00,0,0,0,0,0,1,2,85,51,0,29,29,43
09/07/94,23:55:00,0,0,0,0,0,1,2,85,51,0,40,42,31
09/08/94,00:00:00,0,0,0,0,0,1,2,77,51,0,33,35,38
